星链-3975 (STARLINK-3975 )

导读 | 星芒AI

STARLINK-3975 是 SpaceX Starlink 项目中的一颗低轨通信卫星,属于第 11 批(Group 11)部署的星链卫星之一。该卫星于 2022 年 11 月 18 日由猎鹰 9 号火箭从美国卡纳维拉尔角发射升空,旨在为全球提供高速互联网服务。它运行在约 550 公里的近地轨道上,采用先进通信技术,支持 Starlink 网络的全球覆盖与低延迟特性。该卫星是 SpaceX 扩展其商业卫星互联网服务的重要组成部分。

基本信息
目录编号:
52620
目录名称:
STARLINK-3975
国际标识:
2022-052Y
轨道中心:
EARTH
卫星名称:
星链-3975
卫星全名:
星链-3975 (STARLINK-3975 )
卫星状态:
在轨 (已飞行1271 天)
发射日期:
2022-05-14 UTC
国别 :
美国 (US)
星等 :
--
轨道信息
数据来源 国际轨道数据
星历时间: 2025-11-04T21:03:58+0800
12小时前
查看轨道信息
半长轴: 6917.839km
偏心率: 0.0001492
轨道倾角: 53.216°
近地点辐角 90.075°
升交点赤经 125.916°
平近点角 270.042°
近地点: 538.671km
远地点: 540.737km
周期: 95.437分钟
每日圈数: 15.088536
详细信息
固有亮度:
5
最大亮度:
2.5
卫星平台:
Starlink v1.5
覆盖范围:
全球
运营商:
太空探索技术公司
运营商所在国:
美国
制造商(研发单位):
太空探索技术公司
制造商所在国:
美国
使用方式:
暂无
卫星简介
星链(Starlink)计划是由太空探索技术公司(SpaceX)提出的一个巨型低轨卫星互联网星座项目,计划在2019年至2024年间在太空搭建由约1.2万颗卫星组成的“星链”网络,其中1584颗将部署在地球上空550千米处的近地轨道,并从2020年开始工作。该卫星仍在工作。
2D轨道图
3D轨道图
轨道高度分析图
轨道倾角分析图
轨道综合分析图
查看轨道综合分析图